• In Latvia
  • List of Countries
  • For 7 days
  • Water Temperature
  • Satellite Maps
  • Weather Map
  • Weather Widgets
  • user-avatar
    Login

    Hourly Weather Salta

    Today, 3 December, Saturday

    Time Temperature Precipitation Wind Pressure Humidity
    00:00 +21°C° 0.1 mm 2 mps 652 mmHg 79%
    01:00 +21°C° 0.1 mm 1 mps 652 mmHg 82%
    02:00 +21°C° 0 mm 1 mps 652 mmHg 85%
    03:00 +21°C° 0 mm 1 mps 651 mmHg 86%
    04:00 +20°C° 0 mm 1 mps 651 mmHg 86%
    05:00 +20°C° 0 mm 1 mps 651 mmHg 87%
    06:00 +21°C° 0.2 mm 1 mps 652 mmHg 79%
    07:00 +23°C° 0.2 mm 1 mps 653 mmHg 71%
    08:00 +25°C° 0 mm 1 mps 653 mmHg 62%
    09:00 +26°C° 0.1 mm 2 mps 653 mmHg 56%
    10:00 +28°C° 0.1 mm 2 mps 653 mmHg 51%
    11:00 +29°C° 0.1 mm 3 mps 653 mmHg 46%
    12:00 +30°C° 0.1 mm 3 mps 653 mmHg 45%
    13:00 +30°C° 0.1 mm 3 mps 652 mmHg 43%
    14:00 +32°C° 0.1 mm 4 mps 652 mmHg 42%
    15:00 +31°C° 0.5 mm 3 mps 651 mmHg 44%
    16:00 +30°C° 0.5 mm 3 mps 651 mmHg 46%
    17:00 +29°C° 0.5 mm 3 mps 650 mmHg 48%
    18:00 +28°C° 0.2 mm 3 mps 650 mmHg 54%
    19:00 +27°C° 0.2 mm 2 mps 651 mmHg 60%
    20:00 +25°C° 0.2 mm 2 mps 651 mmHg 66%
    21:00 +25°C° 0.5 mm 1 mps 651 mmHg 69%
    22:00 +24°C° 0.5 mm 1 mps 652 mmHg 72%
    23:00 +24°C° 0.5 mm 1 mps 652 mmHg 74%

    Tomorrow, 4 December, Sunday

    Time Temperature Precipitation Wind Pressure Humidity
    00:00 +23°C° 0.1 mm 1 mps 652 mmHg 77%
    01:00 +23°C° 0.1 mm 1 mps 652 mmHg 80%
    02:00 +22°C° 0.1 mm 1 mps 651 mmHg 83%
    03:00 +22°C° 0 mm 1 mps 651 mmHg 83%
    04:00 +21°C° 0 mm 1 mps 651 mmHg 84%
    05:00 +19°C° 0 mm 0 mps 650 mmHg 84%
    06:00 +22°C° 0 mm 1 mps 651 mmHg 75%
    07:00 +24°C° 0 mm 1 mps 651 mmHg 66%
    08:00 +26°C° 0 mm 1 mps 652 mmHg 58%
    09:00 +27°C° 0 mm 2 mps 652 mmHg 52%
    10:00 +29°C° 0 mm 3 mps 652 mmHg 47%
    11:00 +30°C° 0 mm 4 mps 651 mmHg 42%
    12:00 +32°C° 0 mm 4 mps 651 mmHg 40%
    13:00 +33°C° 0 mm 4 mps 650 mmHg 38%
    14:00 +34°C° 0 mm 4 mps 649 mmHg 37%
    15:00 +33°C° 0.2 mm 5 mps 649 mmHg 38%
    16:00 +33°C° 0.2 mm 5 mps 648 mmHg 40%
    17:00 +32°C° 0.2 mm 5 mps 647 mmHg 41%
    18:00 +29°C° 1.1 mm 4 mps 648 mmHg 47%
    19:00 +27°C° 1.1 mm 3 mps 648 mmHg 54%
    20:00 +26°C° 1.1 mm 2 mps 648 mmHg 60%
    21:00 +25°C° 0.6 mm 2 mps 648 mmHg 63%
    22:00 +24°C° 0.6 mm 1 mps 648 mmHg 66%
    23:00 +24°C° 0.6 mm 1 mps 649 mmHg 69%

    Day after tomorrow, 5 December, Monday

    Time Temperature Precipitation Wind Pressure Humidity
    00:00 +23°C° 0.7 mm 1 mps 648 mmHg 69%
    01:00 +23°C° 0.7 mm 1 mps 648 mmHg 70%
    02:00 +22°C° 0.7 mm 1 mps 647 mmHg 70%
    03:00 +22°C° 0.2 mm 1 mps 647 mmHg 69%
    04:00 +22°C° 0.2 mm 1 mps 647 mmHg 69%
    05:00 +21°C° 0.2 mm 1 mps 647 mmHg 68%
    06:00 +24°C° 0 mm 1 mps 648 mmHg 60%
    07:00 +26°C° 0 mm 2 mps 649 mmHg 52%
    08:00 +28°C° 0 mm 2 mps 650 mmHg 43%
    09:00 +29°C° 0 mm 2 mps 650 mmHg 40%
    10:00 +31°C° 0 mm 2 mps 650 mmHg 36%
    11:00 +34°C° 0 mm 3 mps 650 mmHg 32%
    12:00 +34°C° 0.4 mm 3 mps 649 mmHg 32%
    13:00 +35°C° 0.4 mm 3 mps 649 mmHg 32%
    14:00 +36°C° 0.4 mm 3 mps 648 mmHg 31%
    15:00 +35°C° 0.5 mm 4 mps 648 mmHg 32%
    16:00 +35°C° 0.5 mm 4 mps 648 mmHg 34%
    17:00 +34°C° 0.5 mm 4 mps 647 mmHg 35%
    18:00 +31°C° 1.7 mm 3 mps 648 mmHg 45%
    19:00 +28°C° 1.7 mm 2 mps 648 mmHg 55%
    20:00 +26°C° 1.7 mm 1 mps 648 mmHg 65%
    21:00 +25°C° 1.6 mm 1 mps 649 mmHg 67%
    22:00 +24°C° 1.6 mm 2 mps 649 mmHg 68%
    23:00 +24°C° 1.6 mm 2 mps 650 mmHg 70%

    6 December, Tuesday

    Time Temperature Precipitation Wind Pressure Humidity
    00:00 +23°C° 0.5 mm 1 mps 649 mmHg 72%
    01:00 +23°C° 0.5 mm 1 mps 649 mmHg 74%
    02:00 +22°C° 0.5 mm 1 mps 649 mmHg 76%
    03:00 +22°C° 0.5 mm 1 mps 649 mmHg 77%
    04:00 +22°C° 0.5 mm 1 mps 649 mmHg 78%
    05:00 +21°C° 0.5 mm 1 mps 649 mmHg 80%
    06:00 +23°C° 0.3 mm 1 mps 650 mmHg 71%
    07:00 +25°C° 0.3 mm 1 mps 651 mmHg 63%
    08:00 +27°C° 0.3 mm 1 mps 652 mmHg 55%
    09:00 +28°C° 0.6 mm 2 mps 652 mmHg 50%
    10:00 +29°C° 0.6 mm 2 mps 652 mmHg 46%
    11:00 +31°C° 0.6 mm 3 mps 652 mmHg 42%
    12:00 +31°C° 1.2 mm 3 mps 651 mmHg 44%
    13:00 +32°C° 1.2 mm 4 mps 650 mmHg 46%
    14:00 +32°C° 1.2 mm 4 mps 649 mmHg 47%
    15:00 +30°C° 1.8 mm 4 mps 649 mmHg 52%
    16:00 +29°C° 1.8 mm 4 mps 648 mmHg 56%
    17:00 +28°C° 1.8 mm 4 mps 647 mmHg 60%
    18:00 +26°C° 1.1 mm 3 mps 648 mmHg 67%
    19:00 +25°C° 1.1 mm 2 mps 648 mmHg 74%
    20:00 +23°C° 1.1 mm 2 mps 649 mmHg 81%
    21:00 +23°C° 0.2 mm 1 mps 649 mmHg 81%
    22:00 +23°C° 0.2 mm 1 mps 649 mmHg 81%
    23:00 +22°C° 0.2 mm 1 mps 649 mmHg 82%

    7 December, Wednesday

    Time Temperature Precipitation Wind Pressure Humidity
    00:00 +22°C° 0.1 mm 1 mps 649 mmHg 83%
    01:00 +22°C° 0.1 mm 1 mps 648 mmHg 85%
    02:00 +21°C° 0.1 mm 1 mps 647 mmHg 87%
    03:00 +21°C° 0 mm 1 mps 647 mmHg 87%
    04:00 +21°C° 0 mm 1 mps 647 mmHg 88%
    05:00 +20°C° 0 mm 1 mps 647 mmHg 88%
    06:00 +22°C° 0 mm 1 mps 648 mmHg 79%
    07:00 +24°C° 0 mm 1 mps 649 mmHg 70%
    08:00 +25°C° 0 mm 1 mps 649 mmHg 60%
    09:00 +27°C° 0 mm 2 mps 649 mmHg 54%
    10:00 +29°C° 0 mm 2 mps 649 mmHg 48%
    11:00 +30°C° 0 mm 3 mps 649 mmHg 41%
    12:00 +31°C° 0.3 mm 3 mps 648 mmHg 41%
    13:00 +33°C° 0.3 mm 3 mps 647 mmHg 41%
    14:00 +33°C° 0.3 mm 4 mps 646 mmHg 41%
    15:00 +33°C° 0.9 mm 4 mps 646 mmHg 44%
    16:00 +32°C° 0.9 mm 4 mps 645 mmHg 47%
    17:00 +30°C° 0.9 mm 4 mps 645 mmHg 49%
    18:00 +28°C° 1 mm 3 mps 645 mmHg 59%
    19:00 +26°C° 1 mm 3 mps 646 mmHg 69%
    20:00 +24°C° 1 mm 2 mps 646 mmHg 79%
    21:00 +24°C° 0.6 mm 2 mps 646 mmHg 79%
    22:00 +24°C° 0.6 mm 1 mps 646 mmHg 80%
    23:00 +23°C° 0.6 mm 1 mps 647 mmHg 80%

    8 December, Thursday

    Time Temperature Precipitation Wind Pressure Humidity
    00:00 +23°C° 0.1 mm 1 mps 646 mmHg 80%
    01:00 +22°C° 0.1 mm 1 mps 646 mmHg 79%
    02:00 +22°C° 0.1 mm 1 mps 645 mmHg 78%
    03:00 +21°C° 0 mm 1 mps 645 mmHg 78%
    04:00 +21°C° 0 mm 1 mps 645 mmHg 77%
    05:00 +19°C° 0 mm 2 mps 646 mmHg 77%
    06:00 +21°C° 0 mm 2 mps 646 mmHg 70%
    07:00 +24°C° 0 mm 2 mps 647 mmHg 64%
    08:00 +25°C° 0 mm 3 mps 648 mmHg 57%
    09:00 +26°C° 0.1 mm 4 mps 648 mmHg 56%
    10:00 +27°C° 0.1 mm 4 mps 648 mmHg 54%
    11:00 +27°C° 0.1 mm 5 mps 648 mmHg 53%
    12:00 +27°C° 0.8 mm 4 mps 647 mmHg 54%
    13:00 +27°C° 0.8 mm 4 mps 646 mmHg 55%
    14:00 +27°C° 0.8 mm 4 mps 645 mmHg 56%
    15:00 +27°C° 0.5 mm 4 mps 645 mmHg 57%
    16:00 +26°C° 0.5 mm 4 mps 645 mmHg 58%
    17:00 +26°C° 0.5 mm 4 mps 645 mmHg 59%
    18:00 +24°C° 0.3 mm 3 mps 646 mmHg 66%
    19:00 +22°C° 0.3 mm 3 mps 646 mmHg 73%
    20:00 +20°C° 0.3 mm 2 mps 647 mmHg 79%
    21:00 +20°C° 0.2 mm 2 mps 647 mmHg 81%
    22:00 +19°C° 0.2 mm 2 mps 647 mmHg 83%
    23:00 +19°C° 0.2 mm 2 mps 648 mmHg 85%
    Show more